Flag for U.S.A. Weather past 2 weeks in Anaheim, California, U.S.A.

Now
88 °F

Sunny.


Feels Like: 88 °F
Forecast: 69 / 88 °F
Wind: 8 mph from Southwest

Location: Fullerton Municipal Airport

Current Time: Jul 31, 2014 at 5:07:02 PM

Latest Report: Jul 31, 2014 at 3:53 PM


Visibility: 10 mi

Pressure: 29.84 "Hg

Humidity: 40%

Dew point: 61 °F

Location of AnaheimLocation

Historic Weather in Anaheim — Graph

°F

Anaheim temperature yesterday

Maximum temperature yesterday: 89 °F (at 3:53 PM)
Minimum temperature yesterday: 69 °F (at 5:53 AM)
Average temperature yesterday: 78 °F

Past Weeks' High & Low Weather Summary

 TemperatureHumidityPressure
High96 °F (Jul 24, 3:53 PM)85% (Jul 22, 6:53 AM)30.06 "Hg (Jul 22, 6:53 AM)
Low65 °F (Jul 18, 5:53 AM)16% (Jul 28, 5:53 PM)29.71 "Hg (Jul 24, 5:53 PM)
Average76 °F60%29.94 "Hg
* Reported Jul 16 3:53 PM — Jul 31 3:53 PM, Anaheim, Weather by CustomWeather, © 2014

Note: Actual official high and low records may vary slightly from our data, if they occured in-between our weather recording intervals... More about our weather records

Advertising

Anaheim weather history for previous 24 hours

 ConditionsComfort  
Time TempWeatherWind HumidityBarometerVisibility
3:53 PM
Jul 31
88 °FSunny.8 mph40%29.84 "Hg10 mi
2:53 PM86 °FSunny.5 mph42%29.86 "Hg10 mi
1:53 PM85 °FSunny.6 mph43%29.88 "Hg10 mi
12:53 PM84 °FSunny.3 mph46%29.89 "Hg10 mi
11:53 AM84 °FSunny.6 mph46%29.90 "Hg10 mi
10:53 AM80 °FSunny.3 mph51%29.92 "Hg10 mi
9:53 AM78 °FSunny.6 mph58%29.92 "Hg10 mi
8:53 AM75 °FSunny.5 mph66%29.93 "Hg10 mi
7:53 AM72 °FSunny.3 mph73%29.92 "Hg9 mi
6:53 AM70 °FClear.3 mph79%29.91 "Hg9 mi
5:53 AM69 °FClear.5 mph81%29.91 "Hg10 mi
4:53 AM70 °FClear.3 mph81%29.90 "Hg10 mi
3:53 AM71 °FClear.3 mph78%29.89 "Hg10 mi
2:53 AM71 °FClear.No wind76%29.89 "Hg10 mi
1:53 AM71 °FClear.No wind78%29.91 "Hg10 mi
12:53 AM72 °FClear.3 mph73%29.92 "Hg10 mi
11:53 PM
Jul 30
73 °FClear.5 mph71%29.91 "Hg10 mi
10:53 PM75 °FClear.6 mph66%29.92 "Hg10 mi
9:53 PM77 °FClear.No wind50%29.91 "Hg10 mi
8:53 PM77 °FSunny.5 mph48%29.90 "Hg10 mi
7:53 PM79 °FSunny.7 mph48%29.88 "Hg10 mi
6:53 PM85 °FSunny.8 mph40%29.87 "Hg10 mi
5:53 PM89 °FSunny.6 mph36%29.86 "Hg10 mi
Weather by CustomWeather, © 2014

See weather overviewHow to use our weather pages